Volver al catálogo

STARLINK-32375

ActivoComunicacionesVLEO
NORAD 61070·PAYLOAD·🇺🇸 United States

Lanzado Sep 13, 2024 desde Vandenberg Space Force Base

Loading…

Próximos Pases (próximas 24 horas)

TLE

ActualizadoSource: CelesTrak SupGP

Época: Sep 14, 2026, 20:45 UTC

1 61070C 24164W   26257.86506944  .00010571  00000+0  31245-3 0  2573
2 61070  53.1590 291.7465 0001147  85.5979 165.4778 15.34374082    15

Sigue STARLINK-32375 en tiempo real con AllMySat

Download on the App Store